Meteo orario Abadiânia

Oggi, 18 Giugno, Venerdi

Tempo Temperatura Precipitazioni Vento Pressione Umidità
00:00 +16°C° 0 mm 1 m/s 678 mm Hg 47%
01:00 +15°C° 0 mm 1 m/s 678 mm Hg 49%
02:00 +15°C° 0 mm 1 m/s 677 mm Hg 50%
03:00 +15°C° 0 mm 1 m/s 677 mm Hg 51%
04:00 +14°C° 0 mm 1 m/s 677 mm Hg 52%
05:00 +14°C° 0 mm 1 m/s 678 mm Hg 54%
06:00 +14°C° 0 mm 1 m/s 678 mm Hg 56%
07:00 +16°C° 0 mm 1 m/s 679 mm Hg 51%
08:00 +18°C° 0 mm 2 m/s 680 mm Hg 46%
09:00 +20°C° 0 mm 2 m/s 680 mm Hg 41%
10:00 +23°C° 0 mm 2 m/s 681 mm Hg 37%
11:00 +25°C° 0 mm 2 m/s 681 mm Hg 33%
12:00 +27°C° 0 mm 3 m/s 681 mm Hg 29%
13:00 +27°C° 0 mm 2 m/s 680 mm Hg 28%
14:00 +28°C° 0 mm 1 m/s 680 mm Hg 27%
15:00 +28°C° 0 mm 1 m/s 679 mm Hg 27%
16:00 +26°C° 0 mm 1 m/s 679 mm Hg 32%
17:00 +24°C° 0 mm 1 m/s 678 mm Hg 38%
18:00 +22°C° 0 mm 1 m/s 678 mm Hg 44%
19:00 +21°C° 0 mm 1 m/s 678 mm Hg 45%
20:00 +20°C° 0 mm 1 m/s 678 mm Hg 46%
21:00 +20°C° 0 mm 1 m/s 679 mm Hg 47%
22:00 +19°C° 0 mm 1 m/s 679 mm Hg 49%
23:00 +18°C° 0 mm 1 m/s 678 mm Hg 51%

Domani, 19 Giugno, Sabato

Tempo Temperatura Precipitazioni Vento Pressione Umidità
00:00 +18°C° 0 mm 1 m/s 678 mm Hg 54%
01:00 +18°C° 0 mm 1 m/s 678 mm Hg 54%
02:00 +16°C° 0 mm 1 m/s 678 mm Hg 55%
03:00 +16°C° 0 mm 1 m/s 677 mm Hg 55%
04:00 +16°C° 0 mm 1 m/s 678 mm Hg 55%
05:00 +16°C° 0 mm 1 m/s 678 mm Hg 55%
06:00 +15°C° 0 mm 1 m/s 678 mm Hg 56%
07:00 +17°C° 0 mm 2 m/s 679 mm Hg 51%
08:00 +19°C° 0 mm 3 m/s 680 mm Hg 47%
09:00 +21°C° 0 mm 4 m/s 680 mm Hg 43%
10:00 +23°C° 0 mm 4 m/s 681 mm Hg 41%
11:00 +26°C° 0 mm 3 m/s 681 mm Hg 38%
12:00 +28°C° 0 mm 3 m/s 681 mm Hg 35%
13:00 +28°C° 0 mm 3 m/s 680 mm Hg 34%
14:00 +29°C° 0 mm 2 m/s 680 mm Hg 33%
15:00 +29°C° 0 mm 2 m/s 679 mm Hg 31%
16:00 +27°C° 0 mm 1 m/s 679 mm Hg 37%
17:00 +25°C° 0 mm 1 m/s 678 mm Hg 42%
18:00 +23°C° 0 mm 1 m/s 678 mm Hg 48%
19:00 +22°C° 0 mm 1 m/s 678 mm Hg 49%
20:00 +22°C° 0 mm 1 m/s 679 mm Hg 51%
21:00 +21°C° 0 mm 1 m/s 679 mm Hg 52%
22:00 +20°C° 0 mm 1 m/s 679 mm Hg 55%
23:00 +20°C° 0 mm 1 m/s 679 mm Hg 58%

Dopodomani, 20 Giugno, Domenica

Tempo Temperatura Precipitazioni Vento Pressione Umidità
00:00 +19°C° 0 mm 1 m/s 678 mm Hg 61%
01:00 +19°C° 0 mm 1 m/s 678 mm Hg 60%
02:00 +20°C° 0 mm 1 m/s 678 mm Hg 60%
03:00 +20°C° 0 mm 1 m/s 677 mm Hg 60%
04:00 +20°C° 0 mm 1 m/s 677 mm Hg 60%
05:00 +20°C° 0 mm 1 m/s 677 mm Hg 60%
06:00 +19°C° 0 mm 1 m/s 677 mm Hg 60%
07:00 +19°C° 0 mm 0 m/s 678 mm Hg 56%
08:00 +21°C° 0 mm 0 m/s 679 mm Hg 53%
09:00 +22°C° 0 mm 0 m/s 680 mm Hg 49%
10:00 +24°C° 0 mm 0 m/s 680 mm Hg 44%
11:00 +28°C° 0 mm 1 m/s 680 mm Hg 39%
12:00 +30°C° 0 mm 1 m/s 680 mm Hg 33%
13:00 +30°C° 0 mm 1 m/s 680 mm Hg 32%
14:00 +30°C° 0 mm 2 m/s 679 mm Hg 31%
15:00 +31°C° 0 mm 2 m/s 678 mm Hg 29%
16:00 +29°C° 0 mm 1 m/s 678 mm Hg 34%
17:00 +26°C° 0 mm 1 m/s 678 mm Hg 40%
18:00 +24°C° 0 mm 1 m/s 678 mm Hg 45%
19:00 +24°C° 0 mm 1 m/s 678 mm Hg 47%
20:00 +21°C° 0 mm 0 m/s 678 mm Hg 49%
21:00 +20°C° 0 mm 0 m/s 678 mm Hg 51%
22:00 +19°C° 0 mm 0 m/s 678 mm Hg 52%
23:00 +21°C° 0 mm 1 m/s 678 mm Hg 53%

21 Giugno, Lunedi

Tempo Temperatura Precipitazioni Vento Pressione Umidità
00:00 +20°C° 0 mm 1 m/s 678 mm Hg 54%
01:00 +20°C° 0 mm 1 m/s 678 mm Hg 56%
02:00 +19°C° 0 mm 1 m/s 677 mm Hg 57%
03:00 +19°C° 0 mm 1 m/s 677 mm Hg 58%
04:00 +18°C° 0 mm 1 m/s 677 mm Hg 59%
05:00 +18°C° 0 mm 1 m/s 677 mm Hg 60%
06:00 +18°C° 0 mm 1 m/s 678 mm Hg 61%
07:00 +20°C° 0 mm 1 m/s 678 mm Hg 55%
08:00 +22°C° 0 mm 1 m/s 679 mm Hg 49%
09:00 +24°C° 0 mm 1 m/s 680 mm Hg 43%
10:00 +26°C° 0 mm 2 m/s 680 mm Hg 39%
11:00 +28°C° 0 mm 2 m/s 680 mm Hg 36%
12:00 +30°C° 0 mm 2 m/s 680 mm Hg 32%
13:00 +30°C° 0 mm 2 m/s 679 mm Hg 30%
14:00 +31°C° 0 mm 2 m/s 679 mm Hg 29%
15:00 +31°C° 0 mm 1 m/s 678 mm Hg 28%
16:00 +29°C° 0 mm 1 m/s 678 mm Hg 33%
17:00 +27°C° 0 mm 1 m/s 678 mm Hg 38%
18:00 +25°C° 0 mm 1 m/s 677 mm Hg 43%
19:00 +24°C° 0 mm 1 m/s 678 mm Hg 44%
20:00 +23°C° 0 mm 1 m/s 678 mm Hg 46%
21:00 +20°C° 0 mm 0 m/s 678 mm Hg 48%
22:00 +22°C° 0 mm 1 m/s 678 mm Hg 49%
23:00 +21°C° 0 mm 1 m/s 678 mm Hg 50%

22 Giugno, Martedi

Tempo Temperatura Precipitazioni Vento Pressione Umidità
00:00 +21°C° 0 mm 1 m/s 678 mm Hg 52%
01:00 +20°C° 0 mm 1 m/s 677 mm Hg 53%
02:00 +20°C° 0 mm 1 m/s 677 mm Hg 54%
03:00 +18°C° 0 mm 0 m/s 677 mm Hg 56%
04:00 +19°C° 0 mm 1 m/s 677 mm Hg 56%
05:00 +19°C° 0 mm 1 m/s 677 mm Hg 57%
06:00 +19°C° 0 mm 1 m/s 677 mm Hg 57%
07:00 +21°C° 0 mm 1 m/s 678 mm Hg 52%
08:00 +24°C° 0 mm 1 m/s 679 mm Hg 46%
09:00 +26°C° 0 mm 1 m/s 680 mm Hg 40%
10:00 +28°C° 0 mm 1 m/s 680 mm Hg 36%
11:00 +30°C° 0 mm 1 m/s 680 mm Hg 31%
12:00 +32°C° 0 mm 1 m/s 680 mm Hg 27%
13:00 +32°C° 0 mm 1 m/s 679 mm Hg 26%
14:00 +32°C° 0 mm 1 m/s 679 mm Hg 25%
15:00 +32°C° 0 mm 1 m/s 678 mm Hg 25%
16:00 +30°C° 0 mm 1 m/s 678 mm Hg 29%
17:00 +28°C° 0 mm 1 m/s 677 mm Hg 34%
18:00 +25°C° 0 mm 1 m/s 677 mm Hg 39%
19:00 +25°C° 0 mm 1 m/s 677 mm Hg 40%
20:00 +24°C° 0 mm 1 m/s 677 mm Hg 41%
21:00 +23°C° 0 mm 1 m/s 678 mm Hg 41%
22:00 +22°C° 0 mm 1 m/s 678 mm Hg 43%
23:00 +22°C° 0 mm 1 m/s 677 mm Hg 44%

23 Giugno, Mercoledi

Tempo Temperatura Precipitazioni Vento Pressione Umidità
00:00 +21°C° 0 mm 1 m/s 677 mm Hg 46%
01:00 +21°C° 0 mm 1 m/s 677 mm Hg 47%
02:00 +20°C° 0 mm 1 m/s 677 mm Hg 48%
03:00 +20°C° 0 mm 1 m/s 677 mm Hg 49%
04:00 +20°C° 0 mm 1 m/s 677 mm Hg 49%
05:00 +19°C° 0 mm 1 m/s 677 mm Hg 50%
06:00 +19°C° 0 mm 1 m/s 677 mm Hg 50%
07:00 +21°C° 0 mm 1 m/s 677 mm Hg 45%
08:00 +24°C° 0 mm 1 m/s 678 mm Hg 40%
09:00 +26°C° 0 mm 1 m/s 679 mm Hg 35%
10:00 +28°C° 0 mm 2 m/s 679 mm Hg 31%
11:00 +30°C° 0 mm 2 m/s 679 mm Hg 28%
12:00 +31°C° 0 mm 3 m/s 679 mm Hg 24%
13:00 +32°C° 0 mm 2 m/s 679 mm Hg 23%
14:00 +32°C° 0 mm 2 m/s 678 mm Hg 23%
15:00 +32°C° 0 mm 2 m/s 678 mm Hg 22%
16:00 +30°C° 0 mm 2 m/s 677 mm Hg 27%
17:00 +27°C° 0 mm 2 m/s 677 mm Hg 32%
18:00 +25°C° 0 mm 1 m/s 677 mm Hg 37%
19:00 +24°C° 0 mm 1 m/s 677 mm Hg 39%
20:00 +23°C° 0 mm 1 m/s 677 mm Hg 41%
21:00 +22°C° 0 mm 1 m/s 677 mm Hg 42%
22:00 +22°C° 0 mm 1 m/s 677 mm Hg 43%
23:00 +21°C° 0 mm 1 m/s 677 mm Hg 44%
Mostrare altro

Abbiamo bisogno del tuo consenso

Meteoprog e i nostri fornitori di servizi possono memorizzare e accedere a dati personali come cookie, identificatori di dispositivi o altre tecnologie simili sul tuo dispositivo e possono elaborare tali dati per personalizzare i contenuti e gli annunci, nonché fornire funzionalità dei social media e analizzarne il traffico.

  • Archiviare e/o accedere alle informazioni sul tuo dispositivo

    Cookie, identificatori di dispositivi o altre informazioni possono essere memorizzati o resi accessibili sul tuo dispositivo per le finalità sopra indicate.

  • Annunci e contenuti personalizzati, misurazione di annunci e contenuti, approfondimenti sul pubblico e sviluppo di prodotti

    Gli annunci e i contenuti possono essere personalizzati in base a un profilo. È possibile aggiungere più dati per personalizzare meglio annunci e contenuti. È possibile misurare il rendimento degli annunci e dei contenuti. È possibile ricavare informazioni sul pubblico che ha visto gli annunci e i contenuti. Tali dati possono essere utilizzati per sviluppare o migliorare l'esperienza, i sistemi e il software dell'utente.

Cliccando su “Accetto”, acconsenti all'uso di cookie, identificatori di dispositivo, web beacon o altre tecnologie simili. Puoi modificare le impostazioni nel browser del tuo dispositivo.

Per determinati scopi, è possibile fare affidamento su interessi legali, piuttosto che sul consenso. Puoi approfondire questo argomento consultando la nostra Informativa sulla privacy e sui cookie.